Torna al catalogo

STARLINK-33768

AttivoComunicazioniVLEO
NORAD 63454·PAYLOAD·🇺🇸 United States

Lanciato Apr 4, 2025 da Vandenberg Space Force Base

Loading…

Prossimi Passaggi (prossime 24 ore)

TLE

AggiornatoSource: CelesTrak SupGP

Epoca: Sep 14, 2026, 22:57 UTC

1 63454C 25069X   26257.95673611  .00008562  00000+0  25301-3 0  2575
2 63454  53.1587 335.7736 0001168  90.5588  92.9619 15.34380866    19

Traccia STARLINK-33768 in tempo reale con AllMySat

Download on the App Store